Weather History for Latrobe, PA

Change the Weather History Date:

Wednesday, May 14, 2014

  Actual Average Record
Temperature  
Mean Temperature 70 °F -  
Max Temperature 78 °F 70 °F 87 °F (1998)
Min Temperature 62 °F 47 °F 30 °F (2013)
Cooling Degree Days 5    
Growing Degree Days 20 (Base 50)    
Moisture  
Dew Point 64 °F    
Average Humidity 88    
Maximum Humidity 100    
Minimum Humidity 61    
Precipitation  
Precipitation 0.12 in - - ()
Sea Level Pressure  
Sea Level Pressure 30.10 in    
Wind  
Wind Speed 5 mph (South)    
Max Wind Speed 18 mph    
Max Gust Speed -    
Visibility 10 miles    
Events Rain , Thunderstorm    
Averages and records for this station are not official NWS values.
T = Trace of Precipitation, MM = Missing Value Source: NWS Daily Summary

Daily Weather History Graph

Daily Weather History Graph

Search for Another Location

Airport:

Trip Planner

Search our weather history database for the weather conditions in past years. The results will help you decide how hot, cold, wet, or windy it might be!

Date:

Astronomy

May. 14, 2014 Rise Set
Actual Time 6:02 AM EDT 8:25 PM EDT
Civil Twilight 5:31 AM EDT 8:56 PM EDT
Nautical Twilight 4:53 AM EDT 9:34 PM EDT
Astronomical Twilight 4:11 AM EDT 10:17 PM EDT
Moon 8:29 PM EDT (5/14) 6:00 AM EDT (5/14)
Length of Visible Light 15h 24m
Length of Day
14h 23m
Full, 100% of the Moon is Illuminated
May 14
Full
May 14
Full
May 21
Last Quarter
May 28
New
Jun 5
First Quarter

Hourly Weather History & Observations

Time (EDT) Temp. Dew Point Humidity Pressure Visibility Wind Dir Wind Speed Gust Speed Precip Events Conditions
12:15 AM 68.0 °F 64.4 °F 88% 30.14 in 7.0 mi South 4.6 mph - 0.00 in Rain , Thunderstorm Light Thunderstorms and Rain
12:35 AM 66.2 °F 66.2 °F 100% 30.11 in 10.0 mi Calm Calm - 0.01 in   Light Drizzle
12:55 AM 66.2 °F 66.2 °F 100% 30.09 in 10.0 mi NE 5.8 mph - 0.01 in   Partly Cloudy
1:15 AM 66.2 °F 66.2 °F 100% 30.11 in 10.0 mi Calm Calm - 0.00 in   Scattered Clouds
1:35 AM 66.2 °F 64.4 °F 94% 30.17 in 9.0 mi SSW 18.4 mph - 0.00 in   Mostly Cloudy
1:55 AM 66.2 °F 64.4 °F 94% 30.16 in 10.0 mi South 11.5 mph - 0.00 in   Partly Cloudy
2:15 AM 66.2 °F 64.4 °F 94% 30.16 in 10.0 mi SSW 16.1 mph - 0.00 in Rain Light Rain
2:35 AM 64.4 °F 64.4 °F 100% 30.14 in 4.0 mi South 6.9 mph - 0.06 in Rain Heavy Rain
2:55 AM 64.4 °F 64.4 °F 100% 30.12 in 8.0 mi SSE 5.8 mph - 0.11 in   Light Drizzle
3:15 AM 64.4 °F 64.4 °F 100% 30.12 in 10.0 mi Calm Calm - 0.00 in   Partly Cloudy
3:35 AM 64.4 °F 64.4 °F 100% 30.12 in 10.0 mi Calm Calm - 0.00 in   Clear
3:55 AM 62.6 °F 62.6 °F 100% 30.11 in 10.0 mi Calm Calm - 0.00 in   Clear
4:15 AM 62.6 °F 62.6 °F 100% 30.11 in 8.0 mi Calm Calm - 0.00 in   Mostly Cloudy
4:35 AM 62.6 °F 62.6 °F 100% 30.14 in 10.0 mi WNW 4.6 mph - 0.00 in   Overcast
4:55 AM 62.6 °F 62.6 °F 100% 30.16 in 10.0 mi Calm Calm - 0.00 in   Mostly Cloudy
5:15 AM 62.6 °F 62.6 °F 100% 30.17 in 10.0 mi Calm Calm - 0.00 in   Clear
5:35 AM 62.6 °F 62.6 °F 100% 30.16 in 8.0 mi Calm Calm - 0.00 in   Clear
5:55 AM 62.6 °F 62.6 °F 100% 30.16 in 8.0 mi Calm Calm - 0.00 in   Clear
6:45 AM 62.6 °F 62.6 °F 100% 30.16 in 10.0 mi Calm Calm - N/A   Mostly Cloudy
7:47 AM 66.2 °F 66.2 °F 100% 30.16 in 10.0 mi SE 9.2 mph - N/A   Mostly Cloudy
8:45 AM 69.8 °F 64.4 °F 83% 30.16 in 10.0 mi East 10.4 mph - N/A   Scattered Clouds
9:45 AM 73.4 °F 64.4 °F 73% 30.15 in 10.0 mi Calm Calm - N/A   Scattered Clouds
10:45 AM 75.2 °F 64.4 °F 69% 30.13 in 10.0 mi Variable 4.6 mph - N/A   Mostly Cloudy
11:45 AM 77.0 °F 66.2 °F 69% 30.13 in 10.0 mi Calm Calm - N/A   Mostly Cloudy
1:50 PM 78.8 °F 66.2 °F 65% 30.08 in 10.0 mi Calm Calm - N/A   Scattered Clouds
2:30 PM 71.6 °F 69.8 °F 94% 30.10 in 5.0 mi South 9.2 mph - N/A Rain , Thunderstorm Light Thunderstorms and Rain
2:50 PM 71.6 °F 69.8 °F 94% 30.09 in 7.0 mi SSE 6.9 mph - N/A   Mostly Cloudy
3:50 PM 73.4 °F 66.2 °F 78% 30.07 in 10.0 mi South 6.9 mph - N/A   Scattered Clouds
4:50 PM 77.0 °F 62.6 °F 61% 30.04 in 15.0 mi SSE 11.5 mph - N/A   Mostly Cloudy
5:50 PM 77.0 °F 62.6 °F 61% 30.01 in 15.0 mi SSE 11.5 mph - N/A   Mostly Cloudy
6:50 PM 77.0 °F 62.6 °F 61% 30.01 in 15.0 mi South 13.8 mph - N/A   Mostly Cloudy
7:50 PM 73.4 °F 62.6 °F 69% 30.00 in 15.0 mi Variable 6.9 mph - N/A   Mostly Cloudy
10:15 PM 68.0 °F 62.6 °F 83% 30.04 in 10.0 mi WSW 4.6 mph - 0.00 in   Clear
10:35 PM 68.0 °F 62.6 °F 83% 30.04 in 10.0 mi SSW 3.5 mph - 0.00 in   Clear
10:55 PM 66.2 °F 62.6 °F 88% 30.05 in 10.0 mi Calm Calm - 0.00 in   Clear
11:15 PM 68.0 °F 62.6 °F 83% 30.05 in - Calm Calm - 0.00 in   Unknown
11:35 PM 68.0 °F 62.6 °F 83% 30.04 in 10.0 mi Calm Calm - 0.00 in   Partly Cloudy
11:55 PM 68.0 °F 62.6 °F 83% 30.03 in 10.0 mi WSW 3.5 mph - 0.00 in   Clear